Log Lane Village, CO

10:41 AM MDT on September 27, 2016 (GMT -0600)
Fort Morgan

Weather History for KFMM - January, 2014

Change the Weather History Date:

Saturday, January 18, 2014

  Actual Average (KAKO) Record (KAKO)
Temperature  
Mean Temperature 40 °F 29 °F  
Max Temperature 52 °F 40 °F 63 °F (1975)
Min Temperature 27 °F 17 °F -19 °F (1943)
Degree Days  
Heating Degree Days 26    
Month to date heating degree days  
Cooling Degree Days 0    
Month to date cooling degree days  
Moisture  
Dew Point 14 °F    
Average Humidity 38    
Maximum Humidity 74    
Minimum Humidity 20    
Precipitation  
Precipitation 0.00 in 0.01 in 0.44 in (1988)
Month to date precipitation 0.15  
Year to date precipitation 0.15  
Sea Level Pressure  
Sea Level Pressure 30.13 in    
Wind  
Wind Speed 17 mph (NW)    
Max Wind Speed 29 mph    
Max Gust Speed 39 mph    
Visibility 10 miles    
Events      
T = Trace of Precipitation, MM = Missing Value Source: NWS Daily Summary

Daily Weather History Graph

Daily Weather History Graph

Search for Another Location

Airport or City:

Trip Planner

Search our weather history database for the weather conditions in past years. The results will help you decide how hot, cold, wet, or windy it might be!

Date:

Astronomy

Jan. 18, 2014 Rise Set
Actual Time 7:14 AM MST 4:57 PM MST
Civil Twilight 6:44 AM MST 5:26 PM MST
Nautical Twilight 6:11 AM MST 6:00 PM MST
Astronomical Twilight 5:39 AM MST 6:32 PM MST
Moon 7:41 PM MST (1/18) 8:15 AM MST (1/18)
Length of Visible Light 10h 41m
Length of Day
9h 42m
Waning Gibbous, 94% of the Moon is Illuminated
Jan 18
Waning Gibbous
Jan 23
Last Quarter
Jan 30
New
Feb 6
First Quarter
Feb 14
Full

Hourly Weather History & Observations

Time (MST) Temp. Windchill Dew Point Humidity Pressure Visibility Wind Dir Wind Speed Gust Speed Precip Events Conditions
12:15 AM 36.1 °F 27.7 °F 14.0 °F 40% 30.05 in 10.0 mi WNW 12.7 mph - N/A   Clear
12:35 AM 37.6 °F 28.8 °F 13.5 °F 37% 30.06 in 10.0 mi NW 15.0 mph - N/A   Clear
12:55 AM 37.2 °F 27.3 °F 13.6 °F 38% 30.07 in 10.0 mi NW 18.4 mph 23.0 mph N/A   Clear
1:15 AM 40.1 °F 29.7 °F 13.1 °F 33% 30.07 in 10.0 mi NW 24.2 mph 32.2 mph N/A   Clear
1:35 AM 40.1 °F 30.5 °F 12.7 °F 33% 30.07 in 10.0 mi NW 20.7 mph 29.9 mph N/A   Clear
1:55 AM 37.2 °F 27.3 °F 12.9 °F 37% 30.08 in 10.0 mi NW 18.4 mph - N/A   Clear
2:15 AM 36.5 °F 26.3 °F 13.1 °F 38% 30.08 in 10.0 mi WNW 18.4 mph - N/A   Clear
2:35 AM 35.1 °F 25.5 °F 13.1 °F 40% 30.08 in 10.0 mi WNW 15.0 mph - N/A   Clear
2:55 AM 32.9 °F 23.2 °F 13.6 °F 45% 30.08 in 10.0 mi WNW 13.8 mph - N/A   Clear
3:15 AM 35.4 °F 24.9 °F 13.3 °F 40% 30.07 in 10.0 mi WNW 18.4 mph 25.3 mph N/A   Clear
3:35 AM 37.4 °F 26.4 °F 12.2 °F 36% 30.08 in 10.0 mi WNW 23.0 mph 28.8 mph N/A   Clear
3:55 AM 37.9 °F 27.6 °F 12.0 °F 35% 30.08 in 10.0 mi WNW 20.7 mph 27.6 mph N/A   Clear
4:15 AM 38.5 °F 28.1 °F 11.8 °F 34% 30.08 in 10.0 mi WNW 21.9 mph 27.6 mph N/A   Clear
4:35 AM 37.8 °F 28.0 °F 11.8 °F 34% 30.08 in 10.0 mi WNW 18.4 mph - N/A   Clear
4:55 AM 36.3 °F 28.0 °F 12.2 °F 37% 30.08 in 10.0 mi WNW 12.7 mph - N/A   Clear
5:15 AM 30.7 °F 21.4 °F 13.1 °F 48% 30.07 in 10.0 mi West 11.5 mph - N/A   Clear
5:35 AM 30.0 °F 19.5 °F 13.1 °F 49% 30.07 in 10.0 mi WNW 13.8 mph - N/A   Clear
5:55 AM 39.2 °F 28.5 °F 12.4 °F 33% 30.08 in 10.0 mi NW 24.2 mph 32.2 mph N/A   Clear
6:15 AM 40.6 °F 29.8 °F 12.2 °F 31% 30.09 in 10.0 mi NW 27.6 mph 38.0 mph N/A   Clear
6:35 AM 39.7 °F 29.5 °F 12.0 °F 32% 30.09 in 10.0 mi WNW 23.0 mph 31.1 mph N/A   Clear
6:55 AM 38.3 °F 28.7 °F 12.0 °F 34% 30.10 in 10.0 mi WNW 18.4 mph - N/A   Clear
7:15 AM 37.0 °F 26.7 °F 12.0 °F 36% 30.10 in 10.0 mi WNW 19.6 mph 23.0 mph N/A   Clear
7:35 AM 38.5 °F 28.6 °F 12.4 °F 34% 30.11 in 10.0 mi WNW 19.6 mph 25.3 mph N/A   Clear
7:55 AM 40.1 °F 31.3 °F 12.6 °F 33% 30.13 in 10.0 mi WNW 17.3 mph - N/A   Clear
8:15 AM 41.0 °F 32.2 °F 12.9 °F 32% 30.13 in 10.0 mi WNW 18.4 mph 24.2 mph N/A   Clear
8:35 AM 42.4 °F 34.4 °F 13.1 °F 30% 30.15 in 10.0 mi NW 17.3 mph - N/A   Clear
8:55 AM 44.2 °F 36.7 °F 13.8 °F 29% 30.17 in 10.0 mi NW 17.3 mph 21.9 mph N/A   Clear
9:15 AM 45.7 °F 37.1 °F 13.6 °F 28% 30.17 in 10.0 mi NW 24.2 mph 32.2 mph N/A   Clear
9:35 AM 46.6 °F - 13.8 °F 27% 30.18 in 10.0 mi NW 27.6 mph 34.5 mph N/A   Clear
9:55 AM 47.3 °F - 14.0 °F 26% 30.19 in 10.0 mi NW 25.3 mph 35.7 mph N/A   Clear
10:15 AM 48.0 °F - 14.5 °F 26% 30.19 in 10.0 mi NW 28.8 mph 39.1 mph N/A   Clear
10:35 AM 48.7 °F - 14.9 °F 26% 30.20 in 10.0 mi NW 28.8 mph 39.1 mph N/A   Clear
10:55 AM 49.5 °F - 15.3 °F 26% 30.21 in 10.0 mi NW 24.2 mph 33.4 mph N/A   Clear
11:15 AM 50.0 °F - 14.9 °F 25% 30.21 in 10.0 mi NW 24.2 mph 34.5 mph N/A   Clear
11:35 AM 50.4 °F - 14.9 °F 24% 30.20 in 10.0 mi NNW 27.6 mph 35.7 mph N/A   Clear
11:55 AM 50.9 °F - 15.3 °F 24% 30.19 in 10.0 mi NNW 27.6 mph 32.2 mph N/A   Clear
12:15 PM 51.1 °F - 14.9 °F 24% 30.17 in 10.0 mi NNW 24.2 mph 36.8 mph N/A   Clear
12:35 PM 51.8 °F - 14.9 °F 23% 30.17 in 10.0 mi NNW 24.2 mph 34.5 mph N/A   Clear
12:55 PM 52.0 °F - 14.4 °F 22% 30.17 in 10.0 mi NNW 25.3 mph 34.5 mph N/A   Clear
1:15 PM 52.0 °F - 14.5 °F 23% 30.17 in 10.0 mi NNW 21.9 mph 29.9 mph N/A   Clear
1:35 PM 52.5 °F - 14.0 °F 22% 30.17 in 10.0 mi NNW 19.6 mph 29.9 mph N/A   Clear
1:55 PM 52.3 °F - 13.5 °F 21% 30.16 in 10.0 mi North 20.7 mph 31.1 mph N/A   Clear
2:15 PM 52.7 °F - 13.1 °F 21% 30.16 in 10.0 mi NNW 21.9 mph 28.8 mph N/A   Clear
2:35 PM 52.2 °F - 12.9 °F 21% 30.17 in 10.0 mi NNW 20.7 mph 27.6 mph N/A   Clear
2:55 PM 52.7 °F - 12.7 °F 20% 30.17 in 10.0 mi NNW 19.6 mph 25.3 mph N/A   Clear
3:15 PM 51.8 °F - 12.4 °F 21% 30.17 in 10.0 mi NNW 19.6 mph 26.5 mph N/A   Clear
3:35 PM 51.3 °F - 12.0 °F 21% 30.17 in 10.0 mi NNW 16.1 mph 23.0 mph N/A   Clear
3:55 PM 50.5 °F - 12.4 °F 22% 30.17 in 10.0 mi NNW 15.0 mph - N/A   Clear
4:15 PM 49.3 °F - 13.3 °F 24% 30.17 in 10.0 mi NNW 13.8 mph - N/A   Clear
4:35 PM 46.0 °F 41.4 °F 13.5 °F 27% 30.17 in 10.0 mi NNW 9.2 mph - N/A   Clear
4:55 PM 41.4 °F 35.7 °F 12.7 °F 31% 30.16 in 10.0 mi NNE 9.2 mph - N/A   Clear
5:15 PM 36.0 °F 30.3 °F 12.7 °F 38% 30.16 in 10.0 mi NNE 6.9 mph - N/A   Clear
5:35 PM 39.2 °F 32.5 °F 12.6 °F 34% 30.15 in 10.0 mi NE 10.4 mph - N/A   Clear
5:55 PM 37.6 °F 31.6 °F 13.6 °F 38% 30.16 in 10.0 mi North 8.1 mph - N/A   Clear
6:15 PM 35.1 °F 30.1 °F 14.0 °F 42% 30.16 in 10.0 mi SSW 5.8 mph - N/A   Clear
6:35 PM 36.5 °F 32.7 °F 13.1 °F 38% 30.16 in 10.0 mi South 4.6 mph - N/A   Clear
6:55 PM 35.4 °F 29.7 °F 13.5 °F 41% 30.16 in 10.0 mi SSW 6.9 mph - N/A   Clear
7:15 PM 33.1 °F - 14.7 °F 47% 30.15 in 10.0 mi Calm Calm - N/A   Clear
7:35 PM 33.8 °F 30.8 °F 14.7 °F 46% 30.15 in 10.0 mi West 3.5 mph - N/A   Clear
7:55 PM 31.1 °F 24.5 °F 15.8 °F 53% 30.15 in 10.0 mi WSW 6.9 mph - N/A   Clear
8:15 PM 30.9 °F 27.5 °F 16.3 °F 55% 30.15 in 10.0 mi WSW 3.5 mph - N/A   Clear
8:35 PM 30.9 °F 26.2 °F 18.0 °F 59% 30.14 in 10.0 mi WSW 4.6 mph - N/A   Clear
8:55 PM 32.0 °F 26.4 °F 17.8 °F 56% 30.14 in 10.0 mi West 5.8 mph - N/A   Clear
9:15 PM 30.0 °F 22.4 °F 18.3 °F 62% 30.13 in 10.0 mi WSW 8.1 mph - N/A   Clear
9:35 PM 29.7 °F 24.7 °F 18.3 °F 63% 30.13 in 10.0 mi SW 4.6 mph - N/A   Clear
9:55 PM 29.8 °F 22.2 °F 19.4 °F 65% 30.12 in 10.0 mi SW 8.1 mph - N/A   Clear
10:15 PM 30.0 °F 21.7 °F 20.3 °F 67% 30.12 in 10.0 mi WSW 9.2 mph - N/A   Clear
10:35 PM 28.4 °F 20.4 °F 20.3 °F 72% 30.11 in 10.0 mi WSW 8.1 mph - N/A   Clear
10:55 PM 28.2 °F 20.2 °F 19.9 °F 71% 30.11 in 10.0 mi West 8.1 mph - N/A   Clear
11:15 PM 27.1 °F 18.9 °F 19.9 °F 74% 30.10 in 10.0 mi West 8.1 mph - N/A   Clear
11:35 PM 28.0 °F 20.0 °F 20.5 °F 73% 30.09 in 10.0 mi West 8.1 mph - N/A   Clear
11:55 PM 27.9 °F 18.4 °F 20.3 °F 73% 30.08 in 10.0 mi West 10.4 mph - N/A   Clear